TimeEST,TemperatureF,Dew PointF,Humidity,Sea Level PressureIn,VisibilityMPH,Wind Direction,Wind SpeedMPH,Gust SpeedMPH,PrecipitationIn,Events,Conditions,WindDirDegrees,DateUTC
12:24 AM,48.2,46.4,93,30.12,2.5,Calm,Calm,-,N/A,,Overcast,0,2012-12-03 05:24:00
12:35 AM,48.2,48.2,100,30.12,1.5,Calm,Calm,-,N/A,,Overcast,0,2012-12-03 05:35:00
12:48 AM,48.2,46.4,93,30.12,2.5,Calm,Calm,-,N/A,,Overcast,0,2012-12-03 05:48:00
12:53 AM,48.9,48.0,97,30.11,2.5,Calm,Calm,-,N/A,,Overcast,0,2012-12-03 05:53:00
1:06 AM,50.0,48.2,94,30.12,3.0,WSW,3.5,-,N/A,,Overcast,250,2012-12-03 06:06:00
1:19 AM,50.0,48.2,94,30.13,2.5,Calm,Calm,-,N/A,,Overcast,0,2012-12-03 06:19:00
1:43 AM,48.2,46.4,93,30.13,1.8,Calm,Calm,-,N/A,,Overcast,0,2012-12-03 06:43:00
1:50 AM,48.2,46.4,93,30.14,2.0,Calm,Calm,-,N/A,,Overcast,0,2012-12-03 06:50:00
1:53 AM,48.9,46.9,93,30.12,2.0,Calm,Calm,-,N/A,,Overcast,0,2012-12-03 06:53:00
2:19 AM,46.4,46.4,100,30.13,0.8,WSW,3.5,-,N/A,,Scattered Clouds,250,2012-12-03 07:19:00
2:26 AM,46.4,44.6,93,30.14,0.2,WSW,4.6,-,N/A,Fog,Fog,250,2012-12-03 07:26:00
2:39 AM,48.2,46.4,93,30.14,2.0,West,3.5,-,N/A,,Mostly Cloudy,260,2012-12-03 07:39:00
2:53 AM,48.0,48.0,100,30.12,2.5,WSW,4.6,-,N/A,,Overcast,240,2012-12-03 07:53:00
3:04 AM,46.4,46.4,100,30.13,1.5,WSW,3.5,-,N/A,,Overcast,250,2012-12-03 08:04:00
3:13 AM,48.2,46.4,93,30.14,3.0,West,3.5,-,N/A,,Overcast,260,2012-12-03 08:13:00
3:53 AM,48.0,46.0,93,30.13,3.0,North,3.5,-,N/A,,Clear,350,2012-12-03 08:53:00
4:05 AM,46.4,46.4,100,30.15,2.0,Calm,Calm,-,N/A,,Partly Cloudy,0,2012-12-03 09:05:00
4:14 AM,46.4,44.6,93,30.15,0.8,Calm,Calm,-,N/A,,Scattered Clouds,0,2012-12-03 09:14:00
4:38 AM,46.4,44.6,93,30.15,2.0,Calm,Calm,-,N/A,,Overcast,0,2012-12-03 09:38:00
4:50 AM,46.4,46.4,100,30.15,1.5,Calm,Calm,-,N/A,,Overcast,0,2012-12-03 09:50:00
4:53 AM,46.0,45.0,96,30.14,1.2,Calm,Calm,-,N/A,,Overcast,0,2012-12-03 09:53:00
5:09 AM,46.4,46.4,100,30.15,3.0,Calm,Calm,-,N/A,,Overcast,0,2012-12-03 10:09:00
5:53 AM,46.9,45.0,93,30.15,4.0,Calm,Calm,-,N/A,,Overcast,0,2012-12-03 10:53:00
6:03 AM,46.4,44.6,93,30.17,1.8,Calm,Calm,-,N/A,,Mostly Cloudy,0,2012-12-03 11:03:00
6:12 AM,46.4,44.6,93,30.18,0.8,Calm,Calm,-,N/A,,Scattered Clouds,0,2012-12-03 11:12:00
6:18 AM,46.4,44.6,93,30.18,2.0,Calm,Calm,-,N/A,,Mostly Cloudy,0,2012-12-03 11:18:00
6:53 AM,48.9,45.0,86,30.18,4.0,NW,4.6,-,N/A,,Mostly Cloudy,310,2012-12-03 11:53:00
7:15 AM,46.4,44.6,93,30.20,2.5,NW,4.6,-,N/A,,Clear,320,2012-12-03 12:15:00
7:41 AM,44.6,42.8,93,30.20,1.5,Calm,Calm,-,N/A,,Clear,0,2012-12-03 12:41:00
8:53 AM,50.0,48.0,93,30.20,3.0,WSW,3.5,-,N/A,,Clear,240,2012-12-03 13:53:00
10:53 AM,60.1,51.1,72,30.21,7.0,Variable,3.5,-,N/A,,Clear,0,2012-12-03 15:53:00
11:53 AM,62.1,50.0,65,30.19,10.0,Variable,4.6,-,N/A,,Clear,0,2012-12-03 16:53:00
12:53 PM,63.0,48.0,58,30.17,10.0,NW,9.2,-,N/A,,Clear,320,2012-12-03 17:53:00
2:53 PM,64.0,46.9,54,30.17,10.0,North,6.9,-,N/A,,Clear,350,2012-12-03 19:53:00
3:53 PM,63.0,48.0,58,30.18,10.0,Calm,Calm,-,N/A,,Clear,0,2012-12-03 20:53:00
4:53 PM,59.0,48.0,67,30.19,10.0,Calm,Calm,-,N/A,,Scattered Clouds,0,2012-12-03 21:53:00
5:53 PM,55.0,46.9,74,30.21,10.0,Calm,Calm,-,N/A,,Partly Cloudy,0,2012-12-03 22:53:00
6:53 PM,55.0,46.9,74,30.23,10.0,Calm,Calm,-,N/A,,Mostly Cloudy,0,2012-12-03 23:53:00
7:53 PM,55.0,46.9,74,30.24,10.0,Calm,Calm,-,N/A,,Overcast,0,2012-12-04 00:53:00
8:53 PM,55.0,46.9,74,30.23,10.0,Calm,Calm,-,N/A,,Overcast,0,2012-12-04 01:53:00
9:53 PM,51.1,46.0,83,30.22,10.0,SSE,3.5,-,N/A,,Partly Cloudy,150,2012-12-04 02:53:00
10:53 PM,51.1,46.0,83,30.24,9.0,Calm,Calm,-,N/A,,Mostly Cloudy,0,2012-12-04 03:53:00
11:53 PM,50.0,45.0,83,30.24,9.0,Calm,Calm,-,N/A,,Mostly Cloudy,0,2012-12-04 04:53:00